Regional Weather Roundup
Issued by NWS

Home | Current Version | Previous Version | Graphics & Text | Print | Product List | Glossary On
Versions: 1 2 3 4 5 6 7 8 9 10 11 12 13 14 15 16 17 18 19 20 21 22 23 24 25 26 27 28 29 30 31 32 33 34 35 36 37 38 39 40 41 42 43 44 45 46 47 48 49 50
000
ASUS43 KLSX 291107
RWRMO

WEATHER SUMMARY FOR MISSOURI
NATIONAL WEATHER SERVICE SPRINGFIELD MO
600 AM CDT THU SEP 29 2016

NOTE: "FAIR" INDICATES FEW OR NO CLOUDS BELOW 12,000 FEET WITH NO
       SIGNIFICANT WEATHER AND/OR OBSTRUCTIONS TO VISIBILITY.
       CURRENT SKY AND/OR WEATHER CONDITIONS ARE NOT AVAILABLE FOR
       CHILLICOTHE AND FARMINGTON.

MOZ001>031-035>038-043-044-053-054-291200-
...NORTHERN AND WESTERN MISSOURI...

CITY           SKY/WX    TMP DP  RH WIND       PRES   REMARKS
KANSAS CTY INT CLEAR     48  44  86 N6        30.32R
KANSAS C DTWN  CLEAR     52  48  86 N5        30.32R
LEE`S SUMMIT   CLEAR     50  48  93 N8        30.31R
ST JOSEPH      CLEAR     48  46  93 N7        30.34R
CHILLICOTHE      N/A     51  48  89 VRB5      30.32R
KIRKSVILLE     CLEAR     50  47  89 NW7       30.28R

$$
MOZ066>068-077>081-088>096-101>105-291200-
...SOUTHWEST MISSOURI...

CITY           SKY/WX    TMP DP  RH WIND       PRES   REMARKS
SPRINGFIELD    CLEAR     47  44  90 N3        30.25R
JOPLIN         CLEAR     46  45  96 N6        30.29R
BRANSON        CLEAR     48  46  93 NW3       30.25R

$$
MOZ032>034-039>042-045>050-055>058-069>072-291200-
...CENTRAL MISSOURI...

CITY           SKY/WX    TMP DP  RH WIND       PRES   REMARKS
COLUMBIA       CLEAR     50  49  96 NW10      30.24R
JEFFERSON CITY CLEAR     51  49  92 NW6       30.24R
ROLLA          CLEAR     49  47  93 NW8       30.20R
SEDALIA        CLEAR     50  47  89 N7        30.28R
OSAGE BEACH    CLEAR     50  49  96 N5        30.25R

$$
MOZ051-052-059>065-291200-
...EAST CENTRAL MISSOURI...

CITY           SKY/WX    TMP DP  RH WIND       PRES   REMARKS
ST LOUIS INTL  PTCLDY    55  48  77 NW10      30.15R
SPIRIT OF STL  CLEAR     53  50  89 NW7       30.15S
ST CHARLES     CLEAR     54  50  86 NW10      30.15R

$$
MOZ072>076-082>087-097>100-106>115-291200-
...SOUTH CENTRAL AND SOUTHEAST MISSOURI...

CITY           SKY/WX    TMP DP  RH WIND       PRES   REMARKS
CAPE GIRARDEAU PTCLDY    49  46  90 W3        30.11R
FARMINGTON     CLEAR     51  48  89 NW8       30.15R
POPLAR BLUFF   PTCLDY    52  49  89 NW6       30.13R
WEST PLAINS    CLEAR     51  47  86 N10       30.20S

$$



USA.gov is the U.S. government's official web portal to all federal, state and local government web resources and services.